When you browse on this site, cookies collect data to enhance your experience and personalize the content and advertising you see.
Visit our Privacy Policy to learn more. By continuing to use the site, you agree to this use of cookies and data.
  • In Austria
  • List of Countries
  • For 7 days
  • Water Temperature
  • Weather Map
  • News
  • Weather Widgets
  • user-avatar
    Login

    Hourly Weather Evora

    Today, 6 April, Monday

    Time Temperature Precipitation Wind Pressure Humidity
    00:00 +13°C° 0 mm 1 mps 739 mmHg 98%
    01:00 +13°C° 0 mm 1 mps 739 mmHg 98%
    02:00 +13°C° 0 mm 1 mps 738 mmHg 97%
    03:00 +12°C° 0 mm 1 mps 739 mmHg 97%
    04:00 +12°C° 0 mm 1 mps 739 mmHg 97%
    05:00 +11°C° 0 mm 0 mps 739 mmHg 97%
    06:00 +13°C° 0 mm 1 mps 739 mmHg 94%
    07:00 +14°C° 0 mm 2 mps 740 mmHg 91%
    08:00 +16°C° 0 mm 2 mps 740 mmHg 88%
    09:00 +17°C° 0 mm 3 mps 741 mmHg 80%
    10:00 +19°C° 0 mm 3 mps 741 mmHg 72%
    11:00 +20°C° 0 mm 4 mps 741 mmHg 64%
    12:00 +21°C° 0.2 mm 4 mps 741 mmHg 63%
    13:00 +21°C° 0.2 mm 4 mps 741 mmHg 61%
    14:00 +21°C° 0.2 mm 4 mps 740 mmHg 60%
    15:00 +20°C° 0.1 mm 4 mps 740 mmHg 65%
    16:00 +19°C° 0.1 mm 3 mps 740 mmHg 70%
    17:00 +18°C° 0.1 mm 3 mps 740 mmHg 75%
    18:00 +17°C° 0.4 mm 2 mps 741 mmHg 81%
    19:00 +15°C° 0.4 mm 2 mps 741 mmHg 88%
    20:00 +14°C° 0.4 mm 2 mps 742 mmHg 94%
    21:00 +14°C° 0.2 mm 2 mps 741 mmHg 95%
    22:00 +13°C° 0.2 mm 2 mps 741 mmHg 95%
    23:00 +13°C° 0.2 mm 2 mps 741 mmHg 96%

    Tomorrow, 7 April, Tuesday

    Time Temperature Precipitation Wind Pressure Humidity
    00:00 +13°C° 0.2 mm 2 mps 741 mmHg 96%
    01:00 +13°C° 0.2 mm 2 mps 741 mmHg 97%
    02:00 +13°C° 0.2 mm 2 mps 741 mmHg 97%
    03:00 +14°C° 0.1 mm 2 mps 741 mmHg 97%
    04:00 +14°C° 0.1 mm 2 mps 741 mmHg 97%
    05:00 +14°C° 0.1 mm 2 mps 741 mmHg 97%
    06:00 +14°C° 0.2 mm 3 mps 742 mmHg 94%
    07:00 +16°C° 0.2 mm 3 mps 742 mmHg 92%
    08:00 +17°C° 0.2 mm 3 mps 742 mmHg 89%
    09:00 +18°C° 0.3 mm 3 mps 742 mmHg 83%
    10:00 +20°C° 0.3 mm 3 mps 743 mmHg 77%
    11:00 +21°C° 0.3 mm 4 mps 743 mmHg 71%
    12:00 +21°C° 0.3 mm 4 mps 742 mmHg 69%
    13:00 +22°C° 0.3 mm 3 mps 742 mmHg 67%
    14:00 +22°C° 0.3 mm 3 mps 742 mmHg 66%
    15:00 +21°C° 0.1 mm 3 mps 742 mmHg 70%
    16:00 +20°C° 0.1 mm 3 mps 742 mmHg 75%
    17:00 +19°C° 0.1 mm 3 mps 741 mmHg 79%
    18:00 +17°C° 0 mm 2 mps 742 mmHg 83%
    19:00 +16°C° 0 mm 2 mps 742 mmHg 88%
    20:00 +14°C° 0 mm 1 mps 743 mmHg 92%
    21:00 +14°C° 0 mm 1 mps 743 mmHg 91%
    22:00 +14°C° 0 mm 1 mps 743 mmHg 91%
    23:00 +13°C° 0 mm 0 mps 743 mmHg 90%

    Day after tomorrow, 8 April, Wednesday

    Time Temperature Precipitation Wind Pressure Humidity
    00:00 +13°C° 0 mm 0 mps 743 mmHg 91%
    01:00 +13°C° 0 mm 1 mps 742 mmHg 92%
    02:00 +13°C° 0 mm 1 mps 742 mmHg 93%
    03:00 +13°C° 0 mm 1 mps 742 mmHg 93%
    04:00 +13°C° 0 mm 1 mps 742 mmHg 93%
    05:00 +12°C° 0 mm 1 mps 741 mmHg 94%
    06:00 +14°C° 0 mm 1 mps 742 mmHg 89%
    07:00 +16°C° 0 mm 1 mps 742 mmHg 84%
    08:00 +18°C° 0 mm 1 mps 742 mmHg 79%
    09:00 +20°C° 0 mm 1 mps 742 mmHg 73%
    10:00 +21°C° 0 mm 1 mps 742 mmHg 68%
    11:00 +23°C° 0 mm 1 mps 742 mmHg 62%
    12:00 +22°C° 0 mm 1 mps 742 mmHg 65%
    13:00 +22°C° 0 mm 1 mps 742 mmHg 69%
    14:00 +21°C° 0 mm 1 mps 741 mmHg 72%
    15:00 +20°C° 0 mm 1 mps 741 mmHg 76%
    16:00 +18°C° 0 mm 2 mps 741 mmHg 79%
    17:00 +18°C° 0 mm 2 mps 741 mmHg 83%
    18:00 +17°C° 0 mm 2 mps 741 mmHg 84%
    19:00 +17°C° 0 mm 2 mps 742 mmHg 84%
    20:00 +16°C° 0 mm 2 mps 742 mmHg 85%
    21:00 +16°C° 0 mm 2 mps 742 mmHg 85%
    22:00 +16°C° 0 mm 1 mps 742 mmHg 85%
    23:00 +16°C° 0 mm 1 mps 742 mmHg 85%

    9 April, Thursday

    Time Temperature Precipitation Wind Pressure Humidity
    00:00 +16°C° 0 mm 1 mps 742 mmHg 84%
    01:00 +16°C° 0 mm 2 mps 741 mmHg 82%
    02:00 +15°C° 0 mm 2 mps 741 mmHg 81%
    03:00 +15°C° 0 mm 2 mps 741 mmHg 82%
    04:00 +15°C° 0 mm 2 mps 741 mmHg 83%
    05:00 +14°C° 0 mm 2 mps 740 mmHg 84%
    06:00 +15°C° 0 mm 2 mps 741 mmHg 82%
    07:00 +16°C° 0 mm 2 mps 741 mmHg 79%
    08:00 +17°C° 0 mm 2 mps 741 mmHg 76%
    09:00 +18°C° 0 mm 2 mps 741 mmHg 74%
    10:00 +20°C° 0 mm 1 mps 742 mmHg 72%
    11:00 +21°C° 0 mm 1 mps 742 mmHg 69%
    12:00 +21°C° 0.1 mm 2 mps 741 mmHg 68%
    13:00 +21°C° 0.1 mm 2 mps 741 mmHg 67%
    14:00 +21°C° 0.1 mm 3 mps 741 mmHg 66%
    15:00 +20°C° 0.1 mm 2 mps 741 mmHg 71%
    16:00 +19°C° 0.1 mm 2 mps 741 mmHg 76%
    17:00 +17°C° 0.1 mm 2 mps 741 mmHg 81%
    18:00 +16°C° 0 mm 2 mps 741 mmHg 84%
    19:00 +15°C° 0 mm 2 mps 741 mmHg 87%
    20:00 +14°C° 0 mm 1 mps 741 mmHg 89%
    21:00 +14°C° 0 mm 1 mps 741 mmHg 90%
    22:00 +14°C° 0 mm 1 mps 741 mmHg 92%
    23:00 +14°C° 0 mm 1 mps 741 mmHg 93%

    10 April, Friday

    Time Temperature Precipitation Wind Pressure Humidity
    00:00 +13°C° 0 mm 1 mps 741 mmHg 94%
    01:00 +13°C° 0 mm 1 mps 741 mmHg 94%
    02:00 +13°C° 0 mm 1 mps 740 mmHg 95%
    03:00 +13°C° 0 mm 1 mps 741 mmHg 95%
    04:00 +13°C° 0 mm 2 mps 741 mmHg 95%
    05:00 +12°C° 0 mm 2 mps 741 mmHg 95%
    06:00 +14°C° 0 mm 2 mps 741 mmHg 89%
    07:00 +16°C° 0 mm 2 mps 741 mmHg 83%
    08:00 +18°C° 0 mm 2 mps 742 mmHg 77%
    09:00 +19°C° 0 mm 2 mps 742 mmHg 72%
    10:00 +21°C° 0 mm 2 mps 741 mmHg 67%
    11:00 +23°C° 0 mm 2 mps 741 mmHg 62%
    12:00 +23°C° 0 mm 2 mps 741 mmHg 62%
    13:00 +23°C° 0 mm 2 mps 741 mmHg 62%
    14:00 +22°C° 0 mm 3 mps 740 mmHg 62%
    15:00 +22°C° 0 mm 3 mps 740 mmHg 66%
    16:00 +21°C° 0 mm 3 mps 740 mmHg 70%
    17:00 +20°C° 0 mm 3 mps 740 mmHg 74%
    18:00 +19°C° 0 mm 3 mps 740 mmHg 77%
    19:00 +18°C° 0 mm 3 mps 740 mmHg 79%
    20:00 +17°C° 0 mm 3 mps 741 mmHg 81%
    21:00 +16°C° 0 mm 3 mps 741 mmHg 82%
    22:00 +14°C° 0 mm 3 mps 740 mmHg 83%
    23:00 +14°C° 0 mm 2 mps 740 mmHg 85%

    11 April, Saturday

    Time Temperature Precipitation Wind Pressure Humidity
    00:00 +14°C° 0 mm 2 mps 740 mmHg 86%
    01:00 +13°C° 0 mm 2 mps 740 mmHg 87%
    02:00 +13°C° 0 mm 2 mps 739 mmHg 89%
    03:00 +13°C° 0 mm 2 mps 739 mmHg 89%
    04:00 +13°C° 0 mm 2 mps 739 mmHg 89%
    05:00 +13°C° 0 mm 2 mps 739 mmHg 89%
    06:00 +15°C° 0 mm 2 mps 740 mmHg 83%
    07:00 +17°C° 0 mm 2 mps 740 mmHg 77%
    08:00 +19°C° 0 mm 2 mps 740 mmHg 71%
    09:00 +20°C° 0 mm 2 mps 741 mmHg 66%
    10:00 +23°C° 0 mm 2 mps 741 mmHg 61%
    11:00 +25°C° 0 mm 2 mps 741 mmHg 57%
    12:00 +25°C° 0.1 mm 2 mps 741 mmHg 56%
    13:00 +25°C° 0.1 mm 3 mps 740 mmHg 56%
    14:00 +25°C° 0.1 mm 3 mps 740 mmHg 55%
    15:00 +24°C° 0.2 mm 3 mps 740 mmHg 60%
    16:00 +23°C° 0.2 mm 2 mps 740 mmHg 65%
    17:00 +21°C° 0.2 mm 2 mps 740 mmHg 70%
    18:00 +20°C° 0 mm 2 mps 740 mmHg 73%
    19:00 +19°C° 0 mm 2 mps 740 mmHg 75%
    20:00 +17°C° 0 mm 2 mps 741 mmHg 78%
    21:00 +17°C° 0 mm 2 mps 741 mmHg 79%
    22:00 +16°C° 0 mm 2 mps 741 mmHg 81%
    23:00 +16°C° 0 mm 1 mps 741 mmHg 82%
    Show more